Location: Chiroubles
(46.1812°N, 4.6660°E)
Time: 21:11:07
(UTC+00:00)

SR - Pass Details

Date: 02 December 2020
Orbit: 575 x 880 km, 66.7° (Epoch: 23 January)

Event Time Altitude Azimuth Distance (km) Brightness Sun altitude
Rises 17:03:07 0° 203° (SSW) 2,798 ? -11.2°
Reaches altitude 10° 17:05:17 10° 200° (SSW) 1,923 ? -11.5°
Maximum altitude 17:09:33 64° 119° (ESE) 691 ? -12.2°
Enters shadow 17:13:22 15° 40° (NE) 1,773 ? -12.8°
